Total_Precipitation_Accumulation
0.00 0.00 0.00 0.01 0.01 0.03 0.19 0.42 1.22 1.91 2.20 3.36 3.13 2.60 1.55 1.26 0.98 1.29 0.87 0.21 0.07 0.11 0.06 0.02 0.07 0.10 0.05 0.04 0.07 0.13 0.28 0.42 0.64 0.67 0.71 0.83 0.63 0.83 0.97 1.03 0.95 1.05 0.91 1.18
0.00 0.00 0.00 0.00 0.00 0.02 0.03 0.37 0.96 1.25 1.44 2.32 3.71 2.83 2.38 1.55 0.97 0.93 1.21 0.68 0.25 0.20 0.16 0.04 0.05 0.05 0.04 0.03 0.03 0.15 0.31 0.40 0.34 0.22 0.16 0.53 0.85 1.39 1.79 1.11 1.12 1.30 0.71 0.78
0.00 0.00 0.00 0.00 0.02 0.00 0.06 0.30 0.67 0.90 0.63 1.26 3.00 4.10 3.27 2.21 1.55 1.34 0.75 0.56 0.44 0.19 0.19 0.21 0.12 0.05 0.04 0.01 0.01 0.02 0.14 0.25 0.29 0.27 0.30 0.92 1.67 2.47 2.18 2.05 0.96 0.74 0.88 0.64
0.00 0.00 0.00 0.00 0.00 0.01 0.13 0.20 0.62 1.37 0.80 0.96 0.68 2.76 4.22 2.49 2.10 1.75 0.76 0.50 0.32 0.30 0.37 0.43 0.24 0.10 0.03 0.03 0.05 0.04 0.14 0.24 0.20 0.34 0.28 0.75 1.42 1.61 1.17 0.79 0.62 0.75 1.03 1.05
0.00 0.00 0.01 0.00 0.02 0.04 0.06 0.18 0.56 0.67 0.63 0.28 0.36 0.87 1.89 2.17 2.09 2.08 0.88 0.42 0.49 0.72 0.28 0.20 0.14 0.16 0.20 0.15 0.39 0.34 0.22 0.32 0.31 0.41 0.80 0.70 0.84 0.91 1.10 0.88 1.29 1.36 1.26 1.63
0.00 0.00 0.00 0.00 0.03 0.04 0.06 0.08 0.32 0.59 0.46 0.38 0.19 0.30 1.05 1.68 1.06 1.40 0.88 0.43 0.29 0.47 0.29 0.30 0.41 0.30 0.30 0.55 0.88 0.40 0.27 0.26 0.44 0.52 0.60 0.91 1.56 2.03 1.83 2.40 1.65 1.05 1.05 2.07
0.00 0.00 0.00 0.00 0.01 0.02 0.03 0.06 0.34 0.42 0.38 0.53 0.27 0.26 0.55 0.90 0.63 0.60 1.13 0.75 0.59 0.55 0.78 0.40 0.46 0.26 0.22 0.24 0.50 0.24 0.28 0.28 0.27 0.41 0.46 0.77 2.08 3.35 2.71 2.26 1.31 1.29 1.21 1.46
0.00 0.00 0.00 0.00 0.00 0.01 0.01 0.01 0.13 0.31 0.40 0.60 0.36 0.72 0.41 0.25 0.29 0.44 0.60 0.80 1.31 1.02 0.86 0.98 0.72 0.47 0.22 0.17 0.19 0.10 0.30 0.29 0.31 0.51 0.75 1.96 5.18 4.01 2.35 2.19 1.81 0.99 1.13 1.27
0.00 0.00 0.00 0.00 0.00 0.00 0.00 0.01 0.04 0.13 0.18 0.36 0.42 0.75 0.47 0.19 0.25 0.25 0.50 0.92 1.18 1.14 1.02 2.61 1.37 0.91 0.57 0.15 0.11 0.23 0.57 0.43 0.49 0.72 1.75 3.07 3.52 3.58 3.58 3.25 2.52 1.37 1.38 1.32
0.00 0.00 0.00 0.00 0.00 0.01 0.00 0.01 0.03 0.07 0.23 0.24 0.58 1.10 1.22 0.54 1.14 0.62 0.41 0.61 0.67 1.16 1.24 1.29 1.22 1.04 0.82 0.47 0.35 0.38 0.59 0.63 0.93 1.41 2.19 2.15 2.66 2.36 2.28 2.32 1.85 1.43 2.08 2.60
0.01 0.00 0.01 0.00 0.02 0.03 0.01 0.00 0.01 0.01 0.11 0.32 0.58 0.94 1.09 0.90 1.48 1.34 0.79 0.48 0.53 0.59 1.05 1.72 2.33 2.69 2.05 1.67 1.44 1.04 1.36 2.04 2.59 2.70 2.81 3.24 2.95 2.02 1.65 1.53 1.31 1.23 1.72 2.04
0.02 0.01 0.01 0.01 0.03 0.09 0.12 0.07 0.06 0.02 0.16 0.21 0.30 0.71 0.81 0.93 0.98 1.20 1.84 1.10 0.88 0.70 0.95 1.17 1.72 3.07 4.51 3.07 3.66 4.78 4.07 4.04 4.32 3.85 3.39 3.44 2.57 2.28 1.52 0.98 1.07 1.72 1.70 1.63
0.09 0.06 0.06 0.09 0.08 0.03 0.00 0.02 0.17 0.14 0.14 0.07 0.13 0.27 0.47 0.65 1.20 1.47 2.07 1.93 1.37 1.78 2.54 1.44 1.30 1.67 3.06 3.07 3.12 6.18 7.90 7.37 5.90 4.16 3.70 2.64 2.74 1.73 1.42 1.10 0.83 0.93 1.34 1.64
0.21 0.06 0.02 0.19 0.23 0.09 0.02 0.02 0.01 0.06 0.09 0.03 0.06 0.15 0.48 0.75 1.49 0.80 1.40 2.44 2.00 1.97 1.98 2.61 2.71 2.95 3.68 4.57 4.87 5.43 5.15 4.93 5.26 3.84 3.87 2.91 2.83 2.63 1.96 1.74 1.49 1.19 1.17 0.96
0.12 0.02 0.00 0.03 0.01 0.01 0.04 0.04 0.03 0.01 0.01 0.06 0.37 0.15 0.71 0.47 0.39 0.77 0.62 0.58 0.65 0.87 1.02 1.14 1.56 1.63 2.77 3.77 3.25 4.28 4.52 4.02 3.34 3.84 4.88 4.70 3.79 3.22 3.07 3.31 2.82 2.06 1.64 1.07
0.11 0.04 0.00 0.00 0.01 0.00 0.01 0.01 0.01 0.05 0.13 0.07 0.26 0.50 0.32 0.51 0.56 0.49 0.91 1.35 1.41 1.10 0.90 1.02 1.47 1.49 1.60 1.93 2.07 2.93 4.39 5.01 3.63 2.75 2.84 3.72 4.61 5.07 4.19 4.01 3.73 4.09 3.24 2.34
0.17 0.16 0.15 0.06 0.06 0.02 0.06 0.01 0.01 0.01 0.04 0.05 0.13 0.64 0.61 0.63 0.70 0.84 0.65 1.02 1.80 1.67 1.35 1.11 1.12 1.50 1.40 1.32 1.19 1.23 1.84 2.99 3.77 4.01 3.34 3.25 3.68 5.13 5.42 4.29 4.23 4.38 4.28 4.33
0.16 0.22 0.23 0.15 0.14 0.19 0.07 0.06 0.04 0.07 0.08 0.20 0.35 0.30 0.48 0.51 0.23 0.34 0.47 0.62 1.03 1.63 1.73 1.54 1.24 1.28 1.20 1.50 1.69 1.28 1.21 1.35 1.93 2.79 3.54 3.92 3.59 4.40 5.19 4.33 3.68 3.72 4.22 4.64
0.08 0.23 0.25 0.17 0.32 0.25 0.11 0.08 0.04 0.06 0.16 0.21 0.23 0.37 1.04 0.81 0.44 0.34 0.43 0.38 0.43 0.86 0.78 1.05 1.47 1.38 1.71 1.63 1.87 2.10 1.97 1.51 1.76 1.93 2.50 3.61 4.84 4.91 5.04 5.34 4.68 4.34 4.28 3.98
0.14 0.27 0.37 0.25 0.62 0.79 0.60 0.21 0.03 0.03 0.27 0.39 0.29 0.36 0.99 0.65 0.72 0.54 0.39 0.28 0.26 0.55 0.38 0.33 0.46 0.83 1.25 1.97 2.13 2.31 2.64 2.12 1.72 1.84 1.99 2.08 2.46 3.15 3.62 4.33 4.73 4.75 5.00 4.67
0.54 0.52 0.44 0.38 0.72 0.71 0.43 0.21 0.05 0.23 0.32 0.22 0.25 0.62 0.75 0.56 0.55 0.70 0.67 0.69 0.17 0.22 0.43 0.24 0.23 0.36 0.60 0.90 1.28 1.73 1.60 1.71 2.27 2.34 2.34 2.25 2.29 2.60 2.92 3.03 3.16 3.37 3.25 3.21
0.84 0.96 0.69 0.56 0.76 0.95 0.53 0.44 0.36 0.33 0.15 0.18 0.26 0.56 1.05 0.79 0.77 0.57 0.45 0.39 0.39 0.23 0.62 0.51 0.31 0.41 0.47 0.68 0.90 1.15 1.34 1.32 1.93 2.51 3.02 3.38 3.58 3.51 3.14 3.12 3.89 3.67 3.30 3.29
0.91 0.76 0.71 0.78 0.95 0.97 0.61 0.49 0.28 0.24 0.32 0.28 0.31 0.43 0.64 0.63 0.52 0.48 0.40 0.23 0.19 0.21 0.67 0.73 0.39 0.47 0.71 0.76 0.72 0.70 0.85 1.12 1.32 1.58 2.02 2.19 2.86 3.23 3.11 3.32 3.46 3.28 3.28 3.23
1.19 0.92 0.82 0.79 0.79 0.78 0.76 0.50 0.40 0.21 0.31 0.25 0.24 0.37 0.58 0.56 0.47 0.38 0.35 0.34 0.34 0.32 0.52 1.61 1.44 0.83 0.85 0.73 0.65 0.67 0.74 0.80 0.79 0.86 0.91 0.82 1.07 1.45 1.39 1.43 1.51 1.74 1.72 1.98
2.35 2.40 1.51 1.00 1.06 1.18 1.18 0.92 0.61 0.58 0.50 0.48 0.41 0.31 0.31 0.34 0.41 0.48 0.41 0.38 0.43 0.63 0.70 1.28 1.87 1.60 1.10 1.08 1.24 1.20 1.06 1.16 0.94 1.04 1.01 1.09 1.47 1.95 2.24 2.47 2.74 2.45 2.47 2.54
2.42 2.68 2.42 1.82 1.82 1.91 1.31 1.06 0.80 0.93 0.85 0.88 0.81 0.81 0.69 0.56 0.46 0.43 0.46 0.46 0.49 0.65 1.17 1.62 2.10 2.57 2.60 2.42 2.37 2.26 1.81 1.29 1.11 1.16 1.19 1.30 1.56 1.96 2.29 2.16 2.40 2.94 3.29 3.28